ORBCOMM FM 14

Satellite information

Favourite Embed

Satellite Type and Status

PAYLOADIN ORBIT

Key statistics

Satellite ORBCOMM FM 14 at a glance.

Uptime

9995

Days in orbit

Revolutions

≈ 14.4

Per day

Orbit

LEO

Low Earth Orbit

Inclination

45.0

Latest

Satellite identification and parameters

Extended collection of information and parameters for ORBCOMM FM 14.

Object identification

Identified? True

Debris? False

Object name: ORBCOMM FM 14

International designator: 1998-046G

Object number (NORAD): 25419

Object ID (CCSDS): 25419

Country: ORBITAL TELECOMMUNICATIONS SATELLITE (GLOBALSTAR) (ORB)

Current information (Y/N): Y

RCS size: MEDIUM

Orbital parameters

Period: 100.029 minutes

Inclination: 44.9958 deg

SMA: 7138.036 km

Apoapsis: 761.456 km

Periapsis: 758.347 km

RAAN: 50.3666 deg

Eccentricy: 0.00021783

Argument of periapsis: 162.582 deg

Mean anomaly: 197.5104 deg

Mean motion: 14.39576065 rev/day

Mean motion (dot): 0.00002225 rev/day2

B* drag term: 0.00075105957 1/REarth

Two-line elements (TLE)

Creation date: Dec. 12, 2025, 10:14 a.m.

Reference frame: TEME

Reference center: EARTH

Epoch: Dec. 12, 2025, 5:31 a.m. UTC

TLE line 0: 0 ORBCOMM FM 14

TLE line 1: 1 25419U 98046G 25346.23004448 .00002225 00000-0 75106-3 0 9996

TLE line 2: 2 25419 44.9958 50.3666 0002178 162.5820 197.5104 14.39576065429862

Live tracking on map

Real-time ground track for satellite ORBCOMM FM 14.

In-orbit conjunctions

There are no conjunctions computed for ORBCOMM FM 14, at the moment. Check back to stay up to date, as we update our databases every day.

Go to all conjunctions

Associated space launch

ORBCOMM FM 14 was lifted into orbit during the mission ‘Pegasus XL HAPS | Orbcomm-B1 - B8’, on board a Pegasus XL HAPS space rocket.

The launch took place on Aug. 2, 1998, 4:24 p.m. from Wallops Flight Facility.

For more information about the launch, click the button.

Launch to space Pegasus XL HAPS | Orbcomm-B1 - B8
Pegasus XL HAPS | Orbcomm-B1 - B8

Agency: N/A

Status: Launch Successful

Launch date: Aug. 2, 1998, 4:24 p.m. UTC

Rocket: Pegasus XL HAPS

Launch pad: Wallops Flight Facility

Location: Air launch to orbit

...

Latest news about this satellite

There are no fresh news available about this satellite. Check back as we update our databases every day.


Newsletter sign-up

Weekly statistics, charts and insights to help you stay on top of the space industry.